RYR7279 EPKK-LDZD

Flight info

Callsign RYR7279
Flight time 1h 8m
Altitude 38000
Route BABKO DCT NIDOK DCT XOMBA DCT OLATI DCT KOPRY DCT KOTOR DCT KULEN DCT GISER DCT KUDUL
Aircraft B738/M-SDE2E3FGHIRWXY/LB1

Departure

Time 2026-04-30 11:49
Airport Kraków John Paul II International Airport (EPKK)

Arrival

Time 2026-04-30 12:58
Airport Zadar Airport (LDZD)
Time Latitude Longitude Altitude Speed Heading
2026-04-30 11:48 50.08010 19.80229 798 ft 12 kts 282°
2026-04-30 11:48 50.07985 19.80012 799 ft 48 kts 258°
2026-04-30 11:49 50.07855 19.79089 799 ft 127 kts 258°
2026-04-30 11:49 50.07618 19.77404 1022 ft 176 kts 258°
2026-04-30 11:49 50.07369 19.75614 2032 ft 173 kts 262°
2026-04-30 11:49 50.07148 19.73791 2887 ft 175 kts 263°
2026-04-30 11:50 50.06850 19.71824 3303 ft 198 kts 252°
2026-04-30 11:50 50.05961 19.70085 3842 ft 219 kts 212°
2026-04-30 11:50 50.04496 19.69250 4446 ft 234 kts 195°
2026-04-30 11:50 50.02885 19.68612 5016 ft 251 kts 196°
2026-04-30 11:51 50.01166 19.67813 5639 ft 266 kts 199°
2026-04-30 11:51 49.99374 19.66888 6048 ft 278 kts 199°
2026-04-30 11:51 49.97491 19.65888 6812 ft 286 kts 199°
2026-04-30 11:51 49.95629 19.64898 7750 ft 288 kts 199°
2026-04-30 11:52 49.93720 19.63892 8522 ft 296 kts 199°
2026-04-30 11:52 49.91763 19.62866 9327 ft 302 kts 198°
2026-04-30 11:52 49.89755 19.61815 10168 ft 307 kts 198°
2026-04-30 11:52 49.87715 19.60750 10894 ft 315 kts 198°
2026-04-30 11:53 49.85588 19.59642 11463 ft 329 kts 198°
2026-04-30 11:53 49.83386 19.58494 12275 ft 334 kts 198°
2026-04-30 11:53 49.81225 19.57367 13066 ft 338 kts 198°
2026-04-30 11:53 49.79002 19.56209 13827 ft 343 kts 198°
2026-04-30 11:54 49.76754 19.55041 14581 ft 347 kts 198°
2026-04-30 11:54 49.74442 19.53841 15300 ft 352 kts 198°
2026-04-30 11:54 49.72119 19.52634 16007 ft 357 kts 198°
2026-04-30 11:54 49.69730 19.51393 16660 ft 364 kts 198°
2026-04-30 11:55 49.67334 19.50149 17347 ft 368 kts 197°
2026-04-30 11:55 49.64894 19.48884 18015 ft 373 kts 197°
2026-04-30 11:55 49.62441 19.47574 18616 ft 379 kts 199°
2026-04-30 11:55 49.60005 19.45971 19318 ft 382 kts 205°
2026-04-30 11:56 49.57666 19.44087 19954 ft 387 kts 209°
2026-04-30 11:56 49.55311 19.42000 20585 ft 391 kts 211°
2026-04-30 11:56 49.52981 19.39871 21197 ft 395 kts 211°
2026-04-30 11:56 49.50612 19.37702 21816 ft 399 kts 211°
2026-04-30 11:57 49.48204 19.35513 22416 ft 402 kts 211°
2026-04-30 11:57 49.45783 19.33329 22987 ft 406 kts 210°
2026-04-30 11:57 49.43309 19.31114 23516 ft 410 kts 210°
2026-04-30 11:57 49.40846 19.28919 24086 ft 413 kts 209°
2026-04-30 11:58 49.38370 19.26722 24607 ft 416 kts 209°
2026-04-30 11:58 49.35848 19.24490 25115 ft 420 kts 209°
2026-04-30 11:58 49.33300 19.22240 25628 ft 423 kts 209°
2026-04-30 11:58 49.30737 19.19980 26121 ft 426 kts 209°
2026-04-30 11:59 49.28182 19.17729 26628 ft 428 kts 209°
2026-04-30 11:59 49.25584 19.15445 27081 ft 432 kts 209°
2026-04-30 11:59 49.22964 19.13144 27559 ft 434 kts 209°
2026-04-30 11:59 49.20340 19.10843 28091 ft 435 kts 209°
2026-04-30 12:00 49.17715 19.08543 28539 ft 438 kts 209°
2026-04-30 12:00 49.15067 19.06224 29030 ft 438 kts 209°
2026-04-30 12:00 49.12433 19.03922 29463 ft 441 kts 209°
2026-04-30 12:00 49.09755 19.01584 29883 ft 443 kts 209°
2026-04-30 12:01 49.07081 18.99253 30313 ft 445 kts 209°
2026-04-30 12:01 49.04420 18.96936 30718 ft 447 kts 209°
2026-04-30 12:01 49.01693 18.94566 31018 ft 451 kts 209°
2026-04-30 12:01 48.98981 18.92211 31398 ft 452 kts 209°
2026-04-30 12:02 48.96270 18.89861 31758 ft 452 kts 209°
2026-04-30 12:02 48.93513 18.87473 32047 ft 455 kts 209°
2026-04-30 12:02 48.90778 18.85107 32325 ft 456 kts 210°
2026-04-30 12:02 48.87990 18.82699 32679 ft 455 kts 210°
2026-04-30 12:03 48.85208 18.80391 32941 ft 457 kts 207°
2026-04-30 12:03 48.79433 18.76255 33449 ft 459 kts 204°
2026-04-30 12:03 48.76575 18.74340 33654 ft 462 kts 204°
2026-04-30 12:04 48.73620 18.72374 33939 ft 462 kts 204°
2026-04-30 12:04 48.70682 18.70414 34147 ft 464 kts 204°
2026-04-30 12:04 48.67753 18.68446 34440 ft 464 kts 204°
2026-04-30 12:04 48.64784 18.66437 34672 ft 466 kts 205°
2026-04-30 12:05 48.61830 18.64429 34864 ft 469 kts 205°
2026-04-30 12:05 48.58859 18.62403 35150 ft 469 kts 205°
2026-04-30 12:05 48.55891 18.60374 35505 ft 467 kts 205°
2026-04-30 12:05 48.52940 18.58354 35812 ft 465 kts 205°
2026-04-30 12:06 48.50002 18.56345 36082 ft 465 kts 205°
2026-04-30 12:06 48.47059 18.54331 36312 ft 466 kts 205°
2026-04-30 12:06 48.44104 18.52312 36518 ft 467 kts 205°
2026-04-30 12:06 48.41171 18.50310 36758 ft 467 kts 206°
2026-04-30 12:07 48.38188 18.48276 37004 ft 467 kts 206°
2026-04-30 12:07 48.35239 18.46268 37202 ft 468 kts 205°
2026-04-30 12:07 48.32269 18.44247 37362 ft 470 kts 206°
2026-04-30 12:07 48.29319 18.42244 37590 ft 470 kts 206°
2026-04-30 12:08 48.26351 18.40230 37742 ft 471 kts 206°
2026-04-30 12:08 48.23378 18.38217 37942 ft 471 kts 206°
2026-04-30 12:08 48.20384 18.36191 38130 ft 472 kts 206°
2026-04-30 12:08 48.17382 18.34162 38302 ft 472 kts 205°
2026-04-30 12:09 48.14341 18.32110 38347 ft 475 kts 205°
2026-04-30 12:09 48.08340 18.28066 38362 ft 473 kts 205°
2026-04-30 12:10 48.02367 18.24053 38361 ft 473 kts 205°
2026-04-30 12:10 47.96344 18.20018 38367 ft 475 kts 205°
2026-04-30 12:11 47.90327 18.15996 38371 ft 472 kts 205°
2026-04-30 12:11 47.84417 18.12055 38371 ft 471 kts 205°
2026-04-30 12:12 47.78459 18.08092 38376 ft 471 kts 205°
2026-04-30 12:12 47.72513 18.04042 38375 ft 469 kts 207°
2026-04-30 12:13 47.66711 17.99623 38377 ft 469 kts 209°
2026-04-30 12:13 47.60957 17.95107 38376 ft 469 kts 209°
2026-04-30 12:14 47.55203 17.90627 38375 ft 467 kts 209°
2026-04-30 12:14 47.49459 17.86206 38369 ft 466 kts 209°
2026-04-30 12:15 47.43695 17.81805 38362 ft 466 kts 209°
2026-04-30 12:15 47.37928 17.77426 38351 ft 465 kts 209°
2026-04-30 12:16 47.32179 17.73073 38361 ft 466 kts 209°
2026-04-30 12:16 47.26395 17.68705 38356 ft 466 kts 209°
2026-04-30 12:17 47.17799 17.62235 38358 ft 465 kts 209°
2026-04-30 12:17 47.12054 17.57925 38355 ft 463 kts 208°
2026-04-30 12:18 47.06329 17.53639 38350 ft 463 kts 208°
2026-04-30 12:18 47.00586 17.49353 38350 ft 463 kts 209°
2026-04-30 12:19 46.94859 17.45155 38355 ft 463 kts 208°
2026-04-30 12:19 46.89066 17.41101 38350 ft 462 kts 207°
2026-04-30 12:20 46.83304 17.37119 38351 ft 463 kts 207°
2026-04-30 12:20 46.77534 17.33127 38351 ft 462 kts 207°
2026-04-30 12:21 46.71684 17.29078 38363 ft 460 kts 207°
2026-04-30 12:21 46.65897 17.25070 38366 ft 461 kts 207°
2026-04-30 12:22 46.60132 17.21085 38358 ft 458 kts 207°
2026-04-30 12:22 46.54380 17.17115 38354 ft 459 kts 207°
2026-04-30 12:23 46.48608 17.13141 38353 ft 459 kts 207°
2026-04-30 12:23 46.42832 17.09175 38353 ft 458 kts 207°
2026-04-30 12:24 46.37112 17.05255 38343 ft 458 kts 208°
2026-04-30 12:24 46.31341 17.01309 38358 ft 458 kts 208°
2026-04-30 12:25 46.25705 16.97154 38349 ft 453 kts 216°
2026-04-30 12:25 46.21016 16.91207 38355 ft 447 kts 231°
2026-04-30 12:26 46.17053 16.84397 38365 ft 446 kts 234°
2026-04-30 12:26 46.13211 16.77412 38362 ft 443 kts 235°
2026-04-30 12:27 46.09381 16.70480 38364 ft 443 kts 235°
2026-04-30 12:27 46.05529 16.63593 38358 ft 442 kts 235°
2026-04-30 12:28 46.01667 16.56752 38354 ft 442 kts 234°
2026-04-30 12:28 45.97778 16.49903 38355 ft 443 kts 234°
2026-04-30 12:29 45.93901 16.43106 38359 ft 442 kts 234°
2026-04-30 12:29 45.90022 16.36323 38348 ft 442 kts 234°
2026-04-30 12:30 45.86086 16.29460 38348 ft 442 kts 234°
2026-04-30 12:30 45.82183 16.22667 38347 ft 442 kts 234°
2026-04-30 12:31 45.78246 16.15836 38343 ft 442 kts 234°
2026-04-30 12:31 45.74348 16.09087 38347 ft 442 kts 234°
2026-04-30 12:32 45.70433 16.02326 38341 ft 440 kts 234°
2026-04-30 12:32 45.66519 15.95583 38339 ft 442 kts 234°
2026-04-30 12:33 45.62584 15.88817 38342 ft 443 kts 234°
2026-04-30 12:33 45.58664 15.82096 38332 ft 442 kts 234°
2026-04-30 12:34 45.54740 15.75388 38333 ft 442 kts 234°
2026-04-30 12:34 45.50804 15.68670 38317 ft 442 kts 234°
2026-04-30 12:35 45.46847 15.61934 38312 ft 442 kts 234°
2026-04-30 12:35 45.42915 15.55281 38307 ft 442 kts 233°
2026-04-30 12:36 45.38839 15.48689 38311 ft 444 kts 232°
2026-04-30 12:36 45.34707 15.42158 38200 ft 441 kts 232°
2026-04-30 12:37 45.32519 15.39152 37742 ft 445 kts 221°
2026-04-30 12:37 45.29840 15.36953 37105 ft 453 kts 207°
2026-04-30 12:37 45.26884 15.35305 36610 ft 453 kts 203°
2026-04-30 12:37 45.23887 15.33884 36280 ft 447 kts 200°
2026-04-30 12:38 45.20932 15.32561 35848 ft 444 kts 200°
2026-04-30 12:38 45.18012 15.31265 35397 ft 440 kts 201°
2026-04-30 12:38 45.15108 15.29955 34845 ft 435 kts 201°
2026-04-30 12:38 45.12248 15.28632 34244 ft 431 kts 202°
2026-04-30 12:39 45.09441 15.27306 33801 ft 425 kts 202°
2026-04-30 12:39 45.06647 15.25965 33320 ft 422 kts 202°
2026-04-30 12:39 45.03897 15.24631 32877 ft 417 kts 203°
2026-04-30 12:39 45.01142 15.23285 32278 ft 418 kts 203°
2026-04-30 12:40 44.98390 15.21934 31534 ft 421 kts 202°
2026-04-30 12:40 44.95635 15.20578 30736 ft 422 kts 202°
2026-04-30 12:40 44.92865 15.19215 29804 ft 423 kts 202°
2026-04-30 12:40 44.90083 15.17848 28867 ft 424 kts 202°
2026-04-30 12:41 44.87286 15.16475 27931 ft 424 kts 202°
2026-04-30 12:41 44.84511 15.15115 26998 ft 424 kts 202°
2026-04-30 12:41 44.81737 15.13758 26082 ft 423 kts 201°
2026-04-30 12:41 44.78966 15.12403 25156 ft 422 kts 201°
2026-04-30 12:42 44.76213 15.11060 24239 ft 421 kts 201°
2026-04-30 12:42 44.73438 15.09709 23392 ft 418 kts 200°
2026-04-30 12:42 44.70675 15.08560 22608 ft 415 kts 194°
2026-04-30 12:42 44.67862 15.07970 21832 ft 412 kts 184°
2026-04-30 12:43 44.65006 15.08093 21044 ft 408 kts 173°
2026-04-30 12:43 44.62279 15.08925 20261 ft 404 kts 161°
2026-04-30 12:43 44.59713 15.10426 19483 ft 398 kts 151°
2026-04-30 12:43 44.57319 15.12342 18725 ft 396 kts 146°
2026-04-30 12:44 44.55003 15.14433 18066 ft 395 kts 145°
2026-04-30 12:44 44.52713 15.16489 17429 ft 394 kts 146°
2026-04-30 12:44 44.50373 15.18469 16793 ft 393 kts 148°
2026-04-30 12:44 44.48001 15.20345 16161 ft 392 kts 149°
2026-04-30 12:45 44.45614 15.22140 15531 ft 390 kts 150°
2026-04-30 12:45 44.43205 15.23900 14998 ft 386 kts 151°
2026-04-30 12:45 44.40841 15.25606 14517 ft 380 kts 151°
2026-04-30 12:45 44.38535 15.27263 14053 ft 374 kts 151°
2026-04-30 12:46 44.36229 15.28922 13582 ft 368 kts 151°
2026-04-30 12:46 44.33983 15.30541 13110 ft 363 kts 150°
2026-04-30 12:46 44.31767 15.32138 12644 ft 359 kts 151°
2026-04-30 12:46 44.29472 15.33508 12178 ft 356 kts 160°
2026-04-30 12:47 44.27048 15.34036 11714 ft 354 kts 182°
2026-04-30 12:47 44.24712 15.33155 11258 ft 350 kts 208°
2026-04-30 12:47 44.22774 15.31178 10807 ft 345 kts 221°
2026-04-30 12:47 44.21018 15.28935 10353 ft 342 kts 224°
2026-04-30 12:48 44.19299 15.26683 9887 ft 339 kts 223°
2026-04-30 12:48 44.17592 15.24475 9209 ft 337 kts 223°
2026-04-30 12:48 44.15861 15.22284 8465 ft 337 kts 222°
2026-04-30 12:48 44.14105 15.20097 7712 ft 336 kts 221°
2026-04-30 12:49 44.12377 15.17964 6966 ft 335 kts 221°
2026-04-30 12:49 44.10634 15.15820 6213 ft 333 kts 221°
2026-04-30 12:49 44.08923 15.13720 5468 ft 331 kts 221°
2026-04-30 12:49 44.07192 15.11596 4903 ft 329 kts 221°
2026-04-30 12:50 44.05496 15.09516 4412 ft 327 kts 221°
2026-04-30 12:50 44.03799 15.07434 4016 ft 321 kts 221°
2026-04-30 12:50 44.02160 15.05428 3961 ft 305 kts 220°
2026-04-30 12:50 44.00471 15.03863 3950 ft 287 kts 203°
2026-04-30 12:51 43.98595 15.03286 3953 ft 267 kts 177°
2026-04-30 12:51 43.96816 15.03652 3960 ft 252 kts 161°
2026-04-30 12:51 43.95197 15.04516 3958 ft 248 kts 146°
2026-04-30 12:51 43.94005 15.06133 3874 ft 239 kts 115°
2026-04-30 12:52 43.93564 15.08297 3688 ft 228 kts 89°
2026-04-30 12:52 43.93685 15.10427 3464 ft 219 kts 75°
2026-04-30 12:52 43.94191 15.12363 3237 ft 211 kts 60°
2026-04-30 12:52 43.94914 15.14089 3011 ft 206 kts 57°
2026-04-30 12:53 43.95639 15.15788 2780 ft 201 kts 58°
2026-04-30 12:53 43.96319 15.17466 2563 ft 197 kts 59°
2026-04-30 12:53 43.96953 15.19074 2471 ft 183 kts 59°
2026-04-30 12:53 43.97542 15.20569 2455 ft 168 kts 59°
2026-04-30 12:54 43.98134 15.21951 2387 ft 167 kts 55°
2026-04-30 12:54 43.98907 15.23100 2280 ft 165 kts 38°
2026-04-30 12:54 43.99810 15.24075 2168 ft 162 kts 39°
2026-04-30 12:54 44.00664 15.25102 2041 ft 165 kts 43°
2026-04-30 12:55 44.01467 15.26178 1872 ft 153 kts 44°
2026-04-30 12:55 44.02203 15.27105 1816 ft 131 kts 39°
2026-04-30 12:55 44.02906 15.27879 1720 ft 130 kts 40°
2026-04-30 12:55 44.03585 15.28709 1553 ft 128 kts 42°
2026-04-30 12:56 44.04217 15.29505 1346 ft 129 kts 43°
2026-04-30 12:56 44.04883 15.30362 1101 ft 131 kts 44°
2026-04-30 12:56 44.05558 15.31179 945 ft 125 kts 41°
2026-04-30 12:56 44.06206 15.31974 800 ft 126 kts 43°
2026-04-30 12:57 44.06871 15.32791 650 ft 132 kts 43°
2026-04-30 12:57 44.07570 15.33653 440 ft 132 kts 43°
2026-04-30 12:57 44.08247 15.34490 273 ft 129 kts 43°
2026-04-30 12:57 44.08758 15.35131 261 ft 63 kts 40°
2026-04-30 12:58 44.08993 15.35415 262 ft 37 kts 41°
2026-04-30 12:58 44.09163 15.35633 262 ft 22 kts 40°
2026-04-30 12:58 44.09265 15.35737 263 ft 13 kts
2026-04-30 12:58 44.09331 15.35663 262 ft 11 kts 309°
2026-04-30 12:59 44.09378 15.35585 262 ft 9 kts 310°
2026-04-30 12:59 44.09428 15.35540 262 ft 7 kts 353°
2026-04-30 12:59 44.09478 15.35536 262 ft 6 kts 356°
2026-04-30 12:59 44.09523 15.35535 262 ft 7 kts
2026-04-30 13:00 44.09564 15.35535 262 ft 7 kts 359°
2026-04-30 13:00 44.09610 15.35534 261 ft 6 kts 359°
2026-04-30 13:00 44.09649 15.35532 261 ft 5 kts 358°
2026-04-30 13:00 44.09683 15.35530 261 ft 4 kts 352°
2026-04-30 13:01 44.09697 15.35504 261 ft 4 kts 279°
2026-04-30 13:01 44.09698 15.35470 261 ft 1 kts 269°
2026-04-30 13:01 44.09698 15.35466 261 ft 0 kts 269°